• In United Kingdom
  • List of Countries
  • For 7 days
  • Water Temperature
  • Satellite Maps
  • Weather Map
  • Weather Widgets
  • user-avatar
    Login

    Hourly Weather Rybie

    Today, 21 October, Sunday

    Time Temperature Precipitation Wind Pressure Humidity
    00:00 +7°C° 0 mm 2 mps 759 mmHg 86%
    01:00 +7°C° 0 mm 2 mps 759 mmHg 89%
    02:00 +6°C° 0 mm 2 mps 759 mmHg 90%
    03:00 +6°C° 0 mm 2 mps 759 mmHg 92%
    04:00 +5°C° 0 mm 2 mps 759 mmHg 93%
    05:00 +5°C° 0 mm 2 mps 760 mmHg 93%
    06:00 +6°C° 0 mm 1 mps 760 mmHg 93%
    07:00 +6°C° 0 mm 1 mps 761 mmHg 91%
    08:00 +8°C° 0 mm 1 mps 761 mmHg 83%
    09:00 +9°C° 0 mm 1 mps 761 mmHg 75%
    10:00 +11°C° 0 mm 1 mps 761 mmHg 68%
    11:00 +12°C° 0 mm 1 mps 761 mmHg 63%
    12:00 +12°C° 0 mm 1 mps 761 mmHg 59%
    13:00 +13°C° 0 mm 1 mps 761 mmHg 54%
    14:00 +13°C° 0 mm 1 mps 761 mmHg 56%
    15:00 +12°C° 0 mm 1 mps 761 mmHg 58%
    16:00 +12°C° 0 mm 1 mps 761 mmHg 60%
    17:00 +11°C° 0 mm 1 mps 761 mmHg 64%
    18:00 +10°C° 0 mm 1 mps 761 mmHg 67%
    19:00 +8°C° 0 mm 0 mps 761 mmHg 70%
    20:00 +9°C° 0 mm 1 mps 761 mmHg 72%
    21:00 +8°C° 0 mm 1 mps 761 mmHg 73%
    22:00 +8°C° 0 mm 1 mps 761 mmHg 75%
    23:00 +8°C° 0 mm 1 mps 761 mmHg 76%

    Tomorrow, 22 October, Monday

    Time Temperature Precipitation Wind Pressure Humidity
    00:00 +7°C° 0 mm 1 mps 761 mmHg 78%
    01:00 +6°C° 0 mm 2 mps 761 mmHg 79%
    02:00 +6°C° 0 mm 2 mps 760 mmHg 80%
    03:00 +6°C° 0 mm 2 mps 760 mmHg 82%
    04:00 +5°C° 0 mm 2 mps 760 mmHg 83%
    05:00 +5°C° 0 mm 2 mps 760 mmHg 84%
    06:00 +5°C° 0 mm 2 mps 760 mmHg 84%
    07:00 +5°C° 0 mm 2 mps 760 mmHg 85%
    08:00 +7°C° 0 mm 2 mps 759 mmHg 78%
    09:00 +9°C° 0 mm 3 mps 759 mmHg 71%
    10:00 +10°C° 0 mm 3 mps 759 mmHg 64%
    11:00 +11°C° 0 mm 4 mps 759 mmHg 60%
    12:00 +12°C° 0 mm 4 mps 758 mmHg 57%
    13:00 +13°C° 0 mm 4 mps 758 mmHg 54%
    14:00 +12°C° 0 mm 4 mps 757 mmHg 58%
    15:00 +12°C° 0 mm 4 mps 757 mmHg 62%
    16:00 +11°C° 0 mm 4 mps 757 mmHg 65%
    17:00 +11°C° 0.4 mm 4 mps 757 mmHg 71%
    18:00 +9°C° 0.4 mm 5 mps 757 mmHg 76%
    19:00 +9°C° 0.4 mm 5 mps 757 mmHg 82%
    20:00 +8°C° 0.2 mm 5 mps 757 mmHg 83%
    21:00 +7°C° 0.2 mm 4 mps 758 mmHg 83%
    22:00 +6°C° 0.2 mm 4 mps 758 mmHg 84%
    23:00 +6°C° 0 mm 4 mps 758 mmHg 84%

    Day after tomorrow, 23 October, Tuesday

    Time Temperature Precipitation Wind Pressure Humidity
    00:00 +5°C° 0 mm 4 mps 758 mmHg 84%
    01:00 +5°C° 0 mm 4 mps 758 mmHg 85%
    02:00 +4°C° 0 mm 4 mps 757 mmHg 85%
    03:00 +4°C° 0 mm 4 mps 757 mmHg 86%
    04:00 +4°C° 0 mm 4 mps 757 mmHg 87%
    05:00 +4°C° 0 mm 4 mps 756 mmHg 85%
    06:00 +3°C° 0 mm 5 mps 756 mmHg 84%
    07:00 +3°C° 0 mm 5 mps 755 mmHg 83%
    08:00 +4°C° 0.3 mm 6 mps 754 mmHg 80%
    09:00 +4°C° 0.3 mm 7 mps 754 mmHg 77%
    10:00 +5°C° 0.3 mm 8 mps 753 mmHg 74%
    11:00 +5°C° 0.6 mm 9 mps 751 mmHg 75%
    12:00 +5°C° 0.6 mm 9 mps 750 mmHg 76%
    13:00 +5°C° 0.6 mm 10 mps 749 mmHg 77%
    14:00 +5°C° 1 mm 10 mps 747 mmHg 79%
    15:00 +4°C° 1 mm 11 mps 746 mmHg 80%
    16:00 +6°C° 1 mm 11 mps 744 mmHg 82%
    17:00 +6°C° 1 mm 11 mps 743 mmHg 82%
    18:00 +7°C° 1 mm 11 mps 742 mmHg 82%
    19:00 +8°C° 1 mm 12 mps 741 mmHg 82%
    20:00 +8°C° 1.9 mm 12 mps 740 mmHg 83%
    21:00 +8°C° 1.9 mm 12 mps 739 mmHg 84%
    22:00 +9°C° 1.9 mm 11 mps 738 mmHg 85%
    23:00 +8°C° 0.8 mm 11 mps 738 mmHg 81%

    24 October, Wednesday

    Time Temperature Precipitation Wind Pressure Humidity
    00:00 +8°C° 0.8 mm 10 mps 737 mmHg 77%
    01:00 +8°C° 0.8 mm 10 mps 737 mmHg 73%
    02:00 +7°C° 0.2 mm 10 mps 738 mmHg 71%
    03:00 +6°C° 0.2 mm 10 mps 738 mmHg 70%
    04:00 +4°C° 0.2 mm 11 mps 739 mmHg 69%
    05:00 +3°C° 0.1 mm 10 mps 740 mmHg 66%
    06:00 +2°C° 0.1 mm 9 mps 741 mmHg 63%
    07:00 +2°C° 0.1 mm 8 mps 742 mmHg 61%
    08:00 +3°C° 0 mm 9 mps 742 mmHg 58%
    09:00 +3°C° 0 mm 10 mps 742 mmHg 55%
    10:00 +4°C° 0 mm 12 mps 743 mmHg 52%
    11:00 +4°C° 0 mm 11 mps 743 mmHg 51%
    12:00 +6°C° 0 mm 11 mps 743 mmHg 51%
    13:00 +6°C° 0 mm 11 mps 744 mmHg 50%
    14:00 +6°C° 0 mm 11 mps 744 mmHg 50%
    15:00 +6°C° 0 mm 10 mps 745 mmHg 50%
    16:00 +5°C° 0 mm 10 mps 746 mmHg 51%
    17:00 +5°C° 0 mm 9 mps 746 mmHg 53%
    18:00 +4°C° 0 mm 8 mps 747 mmHg 56%
    19:00 +4°C° 0 mm 8 mps 747 mmHg 58%
    20:00 +3°C° 0 mm 7 mps 748 mmHg 60%
    21:00 +3°C° 0 mm 7 mps 748 mmHg 61%
    22:00 +3°C° 0 mm 6 mps 749 mmHg 62%
    23:00 +3°C° 0 mm 6 mps 749 mmHg 64%

    25 October, Thursday

    Time Temperature Precipitation Wind Pressure Humidity
    00:00 +2°C° 0 mm 6 mps 749 mmHg 66%
    01:00 +2°C° 0 mm 6 mps 749 mmHg 68%
    02:00 +2°C° 0 mm 6 mps 749 mmHg 71%
    03:00 +2°C° 0 mm 6 mps 748 mmHg 74%
    04:00 +2°C° 0 mm 5 mps 748 mmHg 77%
    05:00 +2°C° 0.3 mm 6 mps 747 mmHg 80%
    06:00 +3°C° 0.3 mm 6 mps 747 mmHg 84%
    07:00 +4°C° 0.3 mm 6 mps 746 mmHg 88%
    08:00 +5°C° 0.6 mm 7 mps 745 mmHg 88%
    09:00 +7°C° 0.6 mm 8 mps 745 mmHg 87%
    10:00 +8°C° 0.6 mm 9 mps 744 mmHg 87%
    11:00 +8°C° 0.3 mm 9 mps 744 mmHg 85%
    12:00 +10°C° 0.3 mm 9 mps 744 mmHg 83%
    13:00 +10°C° 0.3 mm 9 mps 744 mmHg 81%
    14:00 +10°C° 0.2 mm 9 mps 744 mmHg 80%
    15:00 +10°C° 0.2 mm 8 mps 744 mmHg 79%
    16:00 +10°C° 0.2 mm 8 mps 744 mmHg 78%
    17:00 +9°C° 0.2 mm 8 mps 744 mmHg 78%
    18:00 +9°C° 0.2 mm 7 mps 745 mmHg 78%
    19:00 +9°C° 0.2 mm 7 mps 745 mmHg 78%
    20:00 +9°C° 0.1 mm 7 mps 745 mmHg 78%
    21:00 +8°C° 0.1 mm 6 mps 746 mmHg 78%
    22:00 +8°C° 0.1 mm 6 mps 746 mmHg 77%
    23:00 +8°C° 0.1 mm 5 mps 746 mmHg 81%

    26 October, Friday

    Time Temperature Precipitation Wind Pressure Humidity
    00:00 +8°C° 0.1 mm 5 mps 746 mmHg 84%
    01:00 +8°C° 0.1 mm 5 mps 746 mmHg 88%
    02:00 +8°C° 0.2 mm 5 mps 746 mmHg 89%
    03:00 +8°C° 0.2 mm 5 mps 746 mmHg 89%
    04:00 +8°C° 0.2 mm 5 mps 746 mmHg 90%
    05:00 +8°C° 0.1 mm 4 mps 746 mmHg 90%
    06:00 +8°C° 0.1 mm 4 mps 746 mmHg 90%
    07:00 +8°C° 0.1 mm 4 mps 747 mmHg 90%
    08:00 +8°C° 0.1 mm 4 mps 747 mmHg 88%
    09:00 +10°C° 0.1 mm 4 mps 747 mmHg 86%
    10:00 +10°C° 0.1 mm 4 mps 747 mmHg 84%
    11:00 +11°C° 0 mm 4 mps 747 mmHg 80%
    12:00 +12°C° 0 mm 5 mps 746 mmHg 76%
    13:00 +12°C° 0 mm 5 mps 746 mmHg 72%
    14:00 +12°C° 0 mm 4 mps 745 mmHg 73%
    15:00 +12°C° 0 mm 4 mps 745 mmHg 73%
    16:00 +11°C° 0 mm 3 mps 745 mmHg 73%
    17:00 +11°C° 0 mm 3 mps 744 mmHg 75%
    18:00 +10°C° 0 mm 3 mps 744 mmHg 77%
    19:00 +10°C° 0 mm 3 mps 744 mmHg 79%
    20:00 +9°C° 0 mm 3 mps 743 mmHg 81%
    21:00 +9°C° 0 mm 3 mps 743 mmHg 82%
    22:00 +8°C° 0 mm 4 mps 743 mmHg 84%
    23:00 +8°C° 0 mm 4 mps 742 mmHg 85%
    Show more